Location: Unspecified
(51.5147°N, 7.4673°E)
Time: 19:13:31
(UTC+01:00)

A-11 Canister half - Pass Details

Date: 18 February 2026
Orbit: 1512 x 1687 km, 47.2° (Epoch: 8 March)

Event Time Altitude Azimuth Distance (km) Brightness Sun altitude
Rises 23:30:20 0° 256° (WSW) 4,932 11.8 -47.2°
Reaches altitude 10° 23:33:32 10° 254° (WSW) 3,934 11.2 -47.4°
Enters shadow 23:34:13 13° 253° (WSW) 3,727 11.0 -47.4°
Maximum altitude 23:43:32 69° 174° (S) 1,738 - -48.0°
Drops below altitude 10° 23:53:12 10° 94° (E) 3,817 - -48.5°
Sets 23:56:15 0° 92° (E) 4,779 - -48.7°
